| time (UTC) | temp F | wind direction | speed knots | gust knots | rain 1hr in | rain 24hr in | rain mn in | humidity % | barometer mb |
| 20260507091554 | 47 | 0 | 0.0 | 3.5 | 0.00 | 0.24 | 0.06 | 87 | 1005.8 |
| 20260507090056 | 47 | 360 | 0.9 | 2.6 | 0.00 | 0.24 | 0.06 | 87 | 1006.1 |
| 20260507084553 | 48 | 0 | 0.9 | 5.2 | 0.00 | 0.24 | 0.06 | 87 | 1006.0 |
| 20260507083056 | 48 | 360 | 1.7 | 5.2 | 0.00 | 0.24 | 0.06 | 87 | 1006.2 |
| 20260507081559 | 48 | 360 | 0.9 | 7.0 | 0.00 | 0.24 | 0.06 | 89 | 1005.5 |
| 20260507080059 | 49 | 0 | 0.9 | 5.2 | 0.00 | 0.24 | 0.06 | 90 | 1005.9 |
| 20260507074556 | 49 | 360 | 0.9 | 5.2 | 0.00 | 0.24 | 0.06 | 91 | 1005.9 |
| 20260507073130 | 49 | 360 | 0.9 | 4.3 | 0.00 | 0.24 | 0.06 | 92 | 1005.8 |
| 20260507071552 | 49 | 360 | 0.0 | 2.6 | 0.00 | 0.24 | 0.06 | 92 | 1005.4 |
| 20260507070055 | 50 | 0 | 0.0 | 0.9 | 0.00 | 0.24 | 0.06 | 92 | 1005.5 |
| 20260507064608 | 50 | 0 | 0.0 | 0.9 | 0.01 | 0.24 | 0.06 | 92 | 1005.5 |
| 20260507063102 | 50 | 0 | 0.0 | 0.9 | 0.01 | 0.24 | 0.06 | 92 | 1005.1 |
| 20260507061554 | 50 | 360 | 0.0 | 1.7 | 0.01 | 0.24 | 0.06 | 92 | 1005.2 |
| 20260507060057 | 50 | 0 | 0.0 | 2.6 | 0.02 | 0.24 | 0.06 | 92 | 1004.9 |
| 20260507054601 | 51 | 360 | 0.9 | 3.5 | 0.01 | 0.23 | 0.05 | 92 | 1004.9 |
| 20260507053101 | 51 | 0 | 0.9 | 5.2 | 0.02 | 0.23 | 0.05 | 92 | 1005.0 |
| 20260507051554 | 51 | 360 | 1.7 | 7.8 | 0.04 | 0.23 | 0.05 | 91 | 1005.0 |
| 20260507050100 | 53 | 360 | 0.9 | 9.6 | 0.04 | 0.22 | 0.04 | 92 | 1004.9 |
| 20260507044601 | 54 | 360 | 1.7 | 4.3 | 0.04 | 0.22 | 0.04 | 94 | 1004.5 |
| 20260507043054 | 54 | 360 | 0.9 | 3.5 | 0.03 | 0.21 | 0.03 | 94 | 1004.0 |
| 20260507041601 | 54 | 0 | 0.9 | 4.3 | 0.01 | 0.19 | 0.01 | 94 | 1004.2 |
| 20260507040105 | 53 | 360 | 1.7 | 3.5 | 0.00 | 0.18 | 0.00 | 94 | 1004.5 |
| 20260507034615 | 53 | 0 | 0.9 | 3.5 | 0.00 | 0.18 | 0.18 | 94 | 1004.0 |
| 20260507033106 | 53 | 0 | 0.0 | 3.5 | 0.00 | 0.18 | 0.18 | 94 | 1003.8 |
| 20260507031552 | 53 | 360 | 0.0 | 3.5 | 0.00 | 0.18 | 0.18 | 94 | 1003.9 |
| 20260507030054 | 52 | 0 | 0.0 | 3.5 | 0.00 | 0.18 | 0.18 | 93 | 1003.9 |
| 20260507024603 | 52 | 360 | 0.9 | 3.5 | 0.01 | 0.18 | 0.18 | 93 | 1004.0 |
| 20260507023054 | 52 | 360 | 0.9 | 5.2 | 0.01 | 0.18 | 0.18 | 93 | 1004.2 |
| 20260507021604 | 52 | 360 | 1.7 | 5.2 | 0.01 | 0.18 | 0.18 | 93 | 1004.4 |
| 20260507020054 | 52 | 360 | 0.9 | 7.8 | 0.02 | 0.18 | 0.18 | 93 | 1004.4 |
| 20260507014555 | 52 | 360 | 1.7 | 8.7 | 0.01 | 0.17 | 0.17 | 93 | 1004.5 |
| 20260507013106 | 52 | 360 | 2.6 | 8.7 | 0.01 | 0.17 | 0.17 | 93 | 1004.7 |
| 20260507011551 | 52 | 360 | 1.7 | 10.4 | 0.01 | 0.17 | 0.17 | 93 | 1004.6 |
| 20260507010054 | 52 | 360 | 3.5 | 9.6 | 0.00 | 0.16 | 0.16 | 92 | 1004.8 |
| 20260507004554 | 52 | 360 | 2.6 | 10.4 | 0.00 | 0.16 | 0.16 | 92 | 1005.0 |
| 20260507003052 | 52 | 360 | 3.5 | 12.2 | 0.00 | 0.16 | 0.16 | 91 | 1005.0 |
| 20260507001608 | 52 | 360 | 4.3 | 11.3 | 0.00 | 0.16 | 0.16 | 91 | 1005.0 |
| 20260507000052 | 52 | 360 | 6.1 | 13.9 | 0.00 | 0.16 | 0.16 | 91 | 1005.0 |
| 20260506234558 | 53 | 360 | 4.3 | 12.2 | 0.00 | 0.16 | 0.16 | 91 | 1005.0 |
| 20260506233053 | 53 | 360 | 3.5 | 10.4 | 0.00 | 0.16 | 0.16 | 90 | 1004.9 |
| 20260506231556 | 53 | 360 | 5.2 | 13.0 | 0.00 | 0.16 | 0.16 | 90 | 1005.2 |
| 20260506230050 | 53 | 360 | 4.3 | 13.0 | 0.00 | 0.16 | 0.16 | 90 | 1005.2 |
| 20260506224606 | 53 | 360 | 3.5 | 10.4 | 0.01 | 0.16 | 0.16 | 90 | 1005.2 |
| 20260506223058 | 53 | 360 | 4.3 | 14.8 | 0.02 | 0.16 | 0.16 | 90 | 1005.5 |
| 20260506221553 | 53 | 360 | 5.2 | 13.0 | 0.03 | 0.16 | 0.16 | 89 | 1005.6 |
| 20260506220104 | 54 | 360 | 5.2 | 16.5 | 0.04 | 0.16 | 0.16 | 89 | 1005.6 |
| 20260506214551 | 53 | 360 | 3.5 | 8.7 | 0.05 | 0.15 | 0.15 | 88 | 1005.7 |
| 20260506213052 | 54 | 360 | 3.5 | 13.0 | 0.05 | 0.14 | 0.14 | 88 | 1005.8 |
| 20260506211554 | 54 | 360 | 3.5 | 14.8 | 0.04 | 0.13 | 0.13 | 88 | 1006.1 |
| 20260506210054 | 54 | 360 | 3.5 | 12.2 | 0.03 | 0.12 | 0.12 | 87 | 1006.0 |
| 20260506204551 | 55 | 360 | 2.6 | 12.2 | 0.04 | 0.10 | 0.10 | 86 | 1006.1 |
| 20260506203058 | 55 | 360 | 5.2 | 12.2 | 0.06 | 0.09 | 0.09 | 86 | 1006.1 |
| 20260506201551 | 55 | 360 | 1.7 | 9.6 | 0.08 | 0.09 | 0.09 | 87 | 1005.9 |
| 20260506200051 | 56 | 360 | 2.6 | 7.8 | 0.09 | 0.09 | 0.09 | 87 | 1006.2 |
| 20260506194553 | 55 | 360 | 2.6 | 10.4 | 0.06 | 0.06 | 0.06 | 87 | 1006.4 |
| 20260506193053 | 55 | 360 | 2.6 | 7.0 | 0.03 | 0.03 | 0.03 | 85 | 1006.6 |
| 20260506191548 | 55 | 360 | 0.9 | 5.2 | 0.01 | 0.01 | 0.01 | 83 | 1006.5 |
| 20260506190052 | 56 | 360 | 3.5 | 10.4 | 0.00 | 0.00 | 0.00 | 81 | 1006.8 |
| 20260506184551 | 56 | 360 | 5.2 | 11.3 | 0.00 | 0.00 | 0.00 | 79 | 1006.6 |
| 20260506183058 | 57 | 360 | 7.0 | 15.6 | 0.00 | 0.00 | 0.00 | 77 | 1006.6 |
| 20260506181604 | 57 | 360 | 6.1 | 13.0 | 0.00 | 0.00 | 0.00 | 76 | 1006.6 |
| 20260506180054 | 58 | 360 | 5.2 | 11.3 | 0.00 | 0.00 | 0.00 | 75 | 1006.7 |
| 20260506174549 | 58 | 360 | 3.5 | 10.4 | 0.00 | 0.00 | 0.00 | 75 | 1006.7 |
| 20260506173117 | 58 | 360 | 1.7 | 11.3 | 0.00 | 0.00 | 0.00 | 75 | 1006.8 |
| 20260506171556 | 59 | 360 | 2.6 | 9.6 | 0.00 | 0.00 | 0.00 | 75 | 1007.1 |
| 20260506170059 | 60 | 360 | 2.6 | 10.4 | 0.00 | 0.00 | 0.00 | 74 | 1007.3 |
| 20260506164552 | 60 | 360 | 3.5 | 7.8 | 0.00 | 0.00 | 0.00 | 74 | 1007.4 |
| 20260506163055 | 60 | 360 | 2.6 | 7.8 | 0.00 | 0.00 | 0.00 | 74 | 1007.8 |
| 20260506161550 | 60 | 360 | 1.7 | 9.6 | 0.00 | 0.00 | 0.00 | 74 | 1008.2 |
| 20260506160108 | 60 | 360 | 2.6 | 9.6 | 0.00 | 0.00 | 0.00 | 74 | 1008.5 |
| 20260506154551 | 60 | 360 | 2.6 | 8.7 | 0.00 | 0.00 | 0.00 | 75 | 1008.6 |
| 20260506153055 | 59 | 360 | 3.5 | 7.8 | 0.00 | 0.00 | 0.00 | 76 | 1008.5 |
| 20260506151551 | 59 | 360 | 3.5 | 7.8 | 0.00 | 0.00 | 0.00 | 76 | 1008.6 |
| 20260506150057 | 60 | 360 | 4.3 | 9.6 | 0.00 | 0.00 | 0.00 | 76 | 1008.6 |
| 20260506144554 | 59 | 360 | 3.5 | 7.8 | 0.00 | 0.00 | 0.00 | 76 | 1008.1 |
| 20260506143051 | 58 | 360 | 2.6 | 9.6 | 0.00 | 0.00 | 0.00 | 78 | 1008.1 |
| 20260506141554 | 58 | 360 | 1.7 | 7.0 | 0.00 | 0.00 | 0.00 | 78 | 1008.3 |
| 20260506140049 | 58 | 360 | 2.6 | 5.2 | 0.00 | 0.00 | 0.00 | 78 | 1008.8 |
| 20260506134551 | 57 | 360 | 2.6 | 4.3 | 0.00 | 0.00 | 0.00 | 79 | 1008.7 |
| 20260506133048 | 57 | 360 | 2.6 | 7.0 | 0.00 | 0.00 | 0.00 | 78 | 1008.9 |
| 20260506131600 | 57 | 360 | 2.6 | 7.0 | 0.00 | 0.00 | 0.00 | 78 | 1008.6 |
| 20260506130055 | 57 | 360 | 1.7 | 7.0 | 0.00 | 0.00 | 0.00 | 78 | 1008.6 |
| 20260506124552 | 57 | 360 | 0.9 | 4.3 | 0.00 | 0.00 | 0.00 | 78 | 1008.6 |
| 20260506123053 | 57 | 360 | 0.0 | 3.5 | 0.00 | 0.00 | 0.00 | 79 | 1008.7 |
| 20260506121552 | 56 | 360 | 0.0 | 2.6 | 0.00 | 0.00 | 0.00 | 79 | 1008.9 |
| 20260506120053 | 56 | 0 | 0.0 | 1.7 | 0.00 | 0.00 | 0.00 | 79 | 1009.1 |
| 20260506114550 | 55 | 0 | 0.0 | 0.9 | 0.00 | 0.00 | 0.00 | 79 | 1009.3 |
| 20260506113049 | 55 | 0 | 0.0 | 1.7 | 0.00 | 0.00 | 0.00 | 80 | 1009.5 |
| 20260506111552 | 54 | 360 | 0.0 | 2.6 | 0.00 | 0.00 | 0.00 | 81 | 1009.2 |
| 20260506110050 | 53 | 0 | 0.0 | 1.7 | 0.00 | 0.00 | 0.00 | 81 | 1009.3 |
| 20260506104550 | 53 | 0 | 0.0 | 0.9 | 0.00 | 0.00 | 0.00 | 81 | 1009.4 |
| 20260506103047 | 53 | 360 | 0.0 | 2.6 | 0.00 | 0.00 | 0.00 | 82 | 1008.9 |
| 20260506101549 | 52 | 0 | 0.0 | 1.7 | 0.00 | 0.00 | 0.00 | 82 | 1009.2 |
| 20260506100051 | 52 | 0 | 0.0 | 0.0 | 0.00 | 0.00 | 0.00 | 82 | 1008.8 |
| 20260506094619 | 52 | 0 | 0.0 | 0.0 | 0.00 | 0.00 | 0.00 | 81 | 1009.0 |
| 20260506093052 | 53 | 0 | 0.0 | 1.7 | 0.00 | 0.00 | 0.00 | 80 | 1008.8 |